N1QWW Weather Reports


time (UTC)temp
C
wind
direction
speed
KPH
gust
KPH
rain 1hr
cm
rain 24hr
cm
rain mn
cm
humidity
%
barometer
mb
20260505070008 10 219 0.0 8.0 0.00 0.00 0.00 89 1011.2
20260505064507 10 252 0.0 8.0 0.00 0.00 0.00 89 1011.2
20260505063006 10 234 1.6 9.7 0.00 0.00 0.00 89 1011.3
20260505061507 10 288 1.6 9.7 0.00 0.00 0.00 89 1011.3
20260505060004 10 236 0.0 9.7 0.00 0.00 0.00 89 1011.4
20260505054504 10 285 1.6 8.0 0.00 0.00 0.00 89 1011.4
20260505053003 10 228 1.6 16.1 0.00 0.00 0.00 89 1011.3
20260505051502 10 275 1.6 9.7 0.00 0.00 0.00 88 1011.4
20260505041603 10 222 0.0 8.0 0.00 0.00 0.00 87 1011.8
20260505040056 10 270 0.0 9.7 0.00 0.00 0.00 86 1011.7
20260505034551 10 283 1.6 9.7 0.00 0.00 0.00 86 1011.9
20260505033051 10 234 0.0 6.4 0.00 0.00 0.00 86 1011.9
20260505031552 10 239 0.0 8.0 0.00 0.00 0.00 85 1012.1
20260505030109 10 249 0.0 6.4 0.00 0.00 0.00 85 1012.0
20260505024550 10 297 1.6 9.7 0.00 0.00 0.00 85 1012.0
20260505023046 10 260 0.0 8.0 0.00 0.00 0.00 84 1012.1
20260505021546 11 260 0.0 14.5 0.00 0.00 0.00 84 1012.1
20260505020045 11 288 1.6 11.3 0.00 0.00 0.00 83 1012.1
20260505014602 11 215 6.4 20.9 0.00 0.00 0.00 83 1011.9
20260505013049 11 273 3.2 12.9 0.00 0.00 0.00 82 1011.8
20260505011543 11 252 1.6 16.1 0.00 0.00 0.00 80 1011.6
20260505010051 11 267 0.0 11.3 0.00 0.00 0.00 79 1011.3
20260505004547 11 218 0.0 19.3 0.00 0.00 0.00 77 1011.2
20260505003053 11 234 4.8 19.3 0.00 0.00 0.00 75 1011.0
20260505001540 12 225 0.0 17.7 0.00 0.00 0.00 73 1010.6
20260505000037 12 284 3.2 25.7 0.00 0.00 0.00 72 1010.4
20260504234534 12 285 8.0 17.7 0.00 0.00 0.00 71 1010.3
20260504233037 12 246 3.2 19.3 0.00 0.00 0.00 72 1010.2
20260504231534 13 252 6.4 25.7 0.00 0.00 0.00 70 1009.9
20260504230033 13 226 3.2 22.5 0.00 0.00 0.00 67 1010.0
20260504224532 14 292 1.6 24.1 0.00 0.00 0.00 64 1009.8
20260504223041 15 257 4.8 19.3 0.00 0.00 0.00 60 1009.8
20260504221531 15 25 4.8 20.9 0.00 0.00 0.00 58 1009.7
20260504220032 15 313 8.0 22.5 0.00 0.00 0.00 55 1009.5
20260504214531 15 283 6.4 29.0 0.00 0.00 0.00 55 1009.6
20260504213030 16 249 6.4 27.4 0.00 0.00 0.00 54 1009.4
20260504211538 16 269 8.0 35.4 0.00 0.00 0.00 53 1009.5
20260504210029 16 297 8.0 27.4 0.00 0.00 0.00 52 1009.5
20260504204529 16 280 9.7 24.1 0.00 0.00 0.00 53 1009.4
20260504203027 16 286 8.0 32.2 0.00 0.00 0.00 52 1009.3
20260504201526 17 242 8.0 29.0 0.00 0.00 0.00 50 1009.3
20260504200026 17 271 4.8 27.4 0.00 0.00 0.00 46 1009.2
20260504194524 17 300 9.7 37.0 0.00 0.00 0.00 44 1009.1
20260504193023 18 22 3.2 29.0 0.00 0.00 0.00 44 1009.4
20260504191526 17 271 16.1 37.0 0.00 0.00 0.00 44 1009.5
20260504190021 18 50 8.0 35.4 0.00 0.00 0.00 42 1009.7
20260504184530 18 259 8.0 37.0 0.00 0.00 0.00 42 1009.7
20260504183021 18 301 8.0 24.1 0.00 0.00 0.00 43 1009.9
20260504181519 18 252 4.8 30.6 0.00 0.00 0.00 47 1009.7
20260504180019 18 262 16.1 41.8 0.00 0.00 0.00 44 1009.6
20260504174518 18 252 14.5 46.7 0.00 0.00 0.00 43 1009.6
20260504173016 18 284 12.9 24.1 0.00 0.00 0.00 43 1009.7
20260504171516 18 309 12.9 27.4 0.00 0.00 0.00 42 1009.7
20260504081534 7 254 0.0 1.6 0.00 0.00 0.00 74 1011.1